Location: *
(48.8489°N, 2.3218°E)
Time: 23:09:12
(UTC+00:00)

Cosmos 1536 - Pass Details

Date: 23 August 2019
Orbit: 540 x 559 km, 82.5° (Epoch: 15 September)

Event Time Altitude Azimuth Distance (km) Brightness Sun altitude
Exits shadow 19:33:40 - 133° (SE) 1,994 5.0 -7.2°
Reaches altitude 10° 19:34:11 10° 128° (SE) 1,847 4.9 -7.3°
Maximum altitude 19:36:54 18° 86° (E) 1,431 4.4 -7.7°
Drops below altitude 10° 19:39:37 10° 44° (NE) 1,856 5.4 -8.1°
Sets 19:42:21 0° 25° (NNE) 2,755 6.4 -8.5°
